Voltar ao catálogo

FENGYUN 1C DEB

AtivoSSO
NORAD 30561·DEBRIS·🇨🇳 China

Lançado May 10, 1999 de Taiyuan Satellite Launch Center

Loading…

Próximas Passagens (próximas 24 horas)

TLE

AtualizadoSource: Space-Track

Época: Sep 14, 2026, 15:36 UTC

1 30561U 99025ALB 26257.65060641  .00000353  00000-0  21432-3 0  9996
2 30561  98.7328 257.2333 0060717  51.7133  16.3734 14.11557018  8713

Acompanhe FENGYUN 1C DEB em tempo real com AllMySat

Download on the App Store